sat.trackr.live / text

‹ back to catalog

STARLINK-32396

NORAD 61633 · 2024-191N

PAYLOAD ACTIVE UNKNOWN

§ Identity

Operator
Country
US
Launch date
2024-10-23
Launch site
AFETR
Launch vehicle
Mass (kg)
RCS (m²)

Purposes: comms

External: N2YO · Heavens-Above · Gunter

§ Orbital elements

Epoch: 2026-05-25T04:25:28.894080Z

Period
94.27 min
Inclination
43.0010°
Eccentricity
0.0001137
Mean motion
15.27579986 rev/d
Perigee alt
482.3 km
Apogee alt
483.8 km
Semi-major
6,861.2 km
B*
2.8056e-5
RAAN
86.1071°
Arg perigee
266.4535°
Mean anomaly
93.6187°
Rev number
8,919

§ Raw data

STARLINK-323961 61633U 24191N   26145.18436220  .00000510  00000+0  28056-4 0  99902 61633  43.0010  86.1071 0001137 266.4535  93.6187 15.27579986 89195

JSON: /api/v1/satellites/61633 · /tle

For live sub-satellite position, see the globe view (requires WebGL).

§ Visibility from observer

Set your observer location to see the next 7 days of passes ≥ 10°. The values pass through the URL so the page stays shareable.

No JS? Fill the form by hand. The geolocation button needs JavaScript.